This demonstration page uses our WeatherBlox Daily Observations layout. Learn more.

Left ArrowRight Arrow

40.92945, -100.16068

Hourly Observations for February 18, 2021

Temp ( °F °C ) Dew Point ( °F °C ) Humidity (%) Winds ( mph kmh ) Pressure ( in mb ) Visibility ( mi km ) Precip ( " mm )
12:15 am 00:15 Cloudy with Light Snow 17 -8.2 13 -10.5 84 84 WNW 5 7 30.43 1031 10 16.0934 N/A
12:35 am 00:35 Cloudy with Light Snow 17 -8.1 13 -10.5 83 83 WNW 3 6 30.43 1031 7 11.26538 N/A
12:55 am 00:55 Cloudy with Light Snow 18 -8 14 -10.2 84 84 WNW 5 7 30.44 1031 7 11.26538 N/A
1:15 am 01:15 Cloudy with Light Snow 18 -8 13 -10.3 84 84 W 5 7 30.44 1031 7 11.26538 N/A
1:35 am 01:35 Cloudy with Light Snow 18 -8 14 -10.1 85 85 W 5 7 30.44 1031 5 8.0467 N/A
1:55 am 01:55 Cloudy with Light Snow 18 -8 14 -10.1 85 85 WNW 6 9 30.44 1031 5 8.0467 N/A
2:15 am 02:15 Cloudy with Light Snow 18 -8 14 -10 86 86 WNW 7 11 30.45 1031 5 8.0467 N/A
2:35 am 02:35 Cloudy with Light Snow 18 -7.9 14 -10 85 85 NW 6 9 30.45 1031 5 8.0467 N/A
2:55 am 02:55 Cloudy with Light Snow 18 -7.8 14 -10 84 84 NW 6 9 30.45 1031 7 11.26538 N/A
3:15 am 03:15 Cloudy with Light Snow 18 -8 14 -10 86 86 NNW 6 9 30.45 1031 7 11.26538 N/A
3:35 am 03:35 Cloudy 18 -8 14 -10 86 86 N 5 7 30.45 1031 7 11.26538 N/A
3:55 am 03:55 Cloudy 17 -8.2 14 -10 87 87 N 5 7 30.45 1031 7 11.26538 N/A
4:15 am 04:15 Cloudy 17 -8.2 14 -10 87 87 N 7 11 30.45 1031 7 11.26538 N/A
4:35 am 04:35 Cloudy 17 -8.4 14 -10.1 88 88 N 5 7 30.45 1031 10 16.0934 N/A
4:55 am 04:55 Cloudy 16 -8.7 13 -10.5 87 87 N 5 7 30.47 1032 10 16.0934 N/A
5:15 am 05:15 Cloudy 16 -8.8 13 -10.7 86 86 N N/A 30.48 1032 10 16.0934 N/A
5:35 am 05:35 Cloudy 16 -8.7 13 -10.7 86 86 N N/A 30.48 1032 10 16.0934 N/A
5:55 am 05:55 Cloudy 16 -9 13 -10.8 87 87 NNW 5 7 30.49 1033 10 16.0934 N/A
6:15 am 06:15 Cloudy 16 -9.1 12 -11 86 86 N N/A 30.5 1033 10 16.0934 N/A
6:35 am 06:35 Cloudy 15 -9.2 12 -11.2 86 86 NNW 6 9 30.5 1033 10 16.0934 N/A
6:55 am 06:55 Cloudy 15 -9.2 11 -11.6 83 83 NNW 6 9 30.5 1033 10 16.0934 N/A
7:15 am 07:15 Cloudy with Light Snow 15 -9.5 11 -11.7 84 84 N 6 9 30.51 1033 10 16.0934 N/A
7:35 am 07:35 Cloudy 15 -9.6 10 -12 83 83 NNW 8 13 30.52 1033 10 16.0934 N/A
7:55 am 07:55 Cloudy with Light Snow 16 -9.1 11 -11.5 83 83 NNW 8 13 30.51 1033 10 16.0934 N/A
8:15 am 08:15 Cloudy with Light Snow 18 -8 12 -11.1 79 79 NNW 13 20 30.51 1033 10 16.0934 N/A
8:35 am 08:35 Cloudy with Light Snow 18 -7.6 12 -11 77 77 NNW 15 24 30.52 1033 10 16.0934 N/A
8:55 am 08:55 Cloudy 18 -7.6 11 -11.4 74 74 N 14 22 30.53 1034 10 16.0934 N/A
9:15 am 09:15 Cloudy 19 -7.5 12 -11.3 75 75 NNW 10 17 30.53 1034 10 16.0934 N/A
9:35 am 09:35 Mostly Cloudy 18 -7.8 11 -11.7 74 74 NW 8 13 30.53 1034 10 16.0934 N/A
9:55 am 09:55 Sunny 18 -7.9 11 -11.7 74 74 NW 7 11 30.54 1034 10 16.0934 N/A
10:10 am 10:10 Sunny 18 -7.6 11 -11.5 74 74 NW 7 11 30.54 1034 10 16.0934 N/A
10:35 am 10:35 Sunny 20 -6.7 12 -11.3 70 70 NW 8 13 30.54 1034 10 16.0934 N/A
10:55 am 10:55 Sunny 20 -6.5 12 -11 71 71 NW 7 11 30.54 1034 10 16.0934 N/A
11:15 am 11:15 Sunny 21 -6 12 -11 68 68 NW 7 11 30.54 1034 10 16.0934 N/A
11:35 am 11:35 Sunny 22 -5.6 13 -10.8 67 67 WNW 6 9 30.55 1034 10 16.0934 N/A
11:55 am 11:55 Partly Cloudy 22 -5.5 13 -10.5 68 68 WNW 5 7 30.55 1035 10 16.0934 N/A
12:15 pm 12:15 Mostly Cloudy 23 -5 13 -10.4 66 66 WNW 5 7 30.55 1035 10 16.0934 N/A
12:35 pm 12:35 Cloudy 24 -4.7 13 -10.3 65 65 WNW 7 11 30.55 1034 10 16.0934 N/A
12:55 pm 12:55 Cloudy 24 -4.7 14 -10.2 66 66 NNW 8 13 30.54 1034 10 16.0934 N/A
1:15 pm 13:15 Cloudy 24 -4.6 14 -10.2 65 65 WNW 10 17 30.53 1034 10 16.0934 N/A
1:35 pm 13:35 Cloudy 24 -4.6 13 -10.6 63 63 NW 7 11 30.52 1033 10 16.0934 N/A
1:55 pm 13:55 Cloudy 24 -4.6 14 -10.1 66 66 WNW 9 15 30.52 1033 10 16.0934 N/A
2:15 pm 14:15 Cloudy 24 -4.7 13 -10.7 63 63 WNW 8 13 30.52 1033 10 16.0934 N/A
2:35 pm 14:35 Cloudy 25 -4.1 14 -10 64 64 NNW 12 19 30.5 1033 10 16.0934 N/A
2:55 pm 14:55 Cloudy 23 -4.8 13 -10.3 66 66 NNW 12 19 30.51 1033 10 16.0934 N/A
3:15 pm 15:15 Cloudy 23 -5.1 13 -10.4 67 67 NNW 9 15 30.5 1033 10 16.0934 N/A
3:35 pm 15:35 Partly Cloudy 23 -5.1 13 -10.5 66 66 NNW 7 11 30.5 1033 10 16.0934 N/A
3:55 pm 15:55 Partly Cloudy 22 -5.5 13 -10.6 68 68 NNW 5 7 30.5 1033 10 16.0934 N/A
4:15 pm 16:15 Partly Cloudy 23 -5.2 13 -10.6 66 66 NNW 5 7 30.49 1033 10 16.0934 N/A
4:35 pm 16:35 Partly Cloudy 22 -5.5 13 -10.7 67 67 NNW 3 6 30.49 1033 10 16.0934 N/A
4:55 pm 16:55 Sunny 22 -5.8 12 -11 67 67 NNW 5 7 30.5 1033 10 16.0934 N/A
5:15 pm 17:15 Partly Cloudy 19 -7.2 12 -11.2 73 73 N N/A 30.51 1033 10 16.0934 N/A
5:35 pm 17:35 Sunny 19 -7 12 -11.1 73 73 N N/A 30.51 1033 10 16.0934 N/A
5:55 pm 17:55 Partly Cloudy 18 -7.6 11 -11.4 74 74 N N/A 30.52 1033 10 16.0934 N/A
6:15 pm 18:15 Mostly Cloudy 17 -8.3 11 -11.9 76 76 N N/A 30.52 1034 10 16.0934 N/A
6:35 pm 18:35 Partly Cloudy 16 -9.1 10 -12.1 79 79 N N/A 30.53 1034 10 16.0934 N/A
6:55 pm 18:55 Clear 15 -9.7 10 -12.5 80 80 N N/A 30.54 1034 10 16.0934 N/A
7:15 pm 19:15 Clear 12 -11.3 8 -13.6 83 83 N N/A 30.56 1035 10 16.0934 N/A
7:35 pm 19:35 Clear 13 -10.6 9 -12.9 83 83 SSW 5 7 30.55 1035 10 16.0934 N/A
7:55 pm 19:55 Clear 11 -11.9 7 -13.9 85 85 WSW 6 9 30.56 1035 10 16.0934 N/A
8:15 pm 20:15 Clear 10 -12 7 -13.9 86 86 SW 7 11 30.56 1035 10 16.0934 N/A
8:35 pm 20:35 Clear 10 -12.5 6 -14.3 87 87 SW 6 9 30.56 1035 10 16.0934 N/A
8:55 pm 20:55 Clear 7 -13.8 4 -15.5 87 87 SW 6 9 30.57 1035 10 16.0934 N/A
9:15 pm 21:15 Clear 8 -13.5 5 -14.8 90 90 WSW 3 6 30.58 1036 10 16.0934 N/A
9:35 pm 21:35 Clear 8 -13.3 6 -14.7 89 89 W 5 7 30.57 1035 7 11.26538 N/A
9:55 pm 21:55 Clear 7 -13.8 4 -15.5 87 87 SW 6 9 30.57 1035 7 11.26538 N/A
10:15 pm 22:15 Clear 6 -14.6 3 -16.2 88 88 WSW 6 9 30.57 1035 7 11.26538 N/A
10:35 pm 22:35 Clear 6 -14.3 3 -15.9 88 88 WSW 6 9 30.57 1035 7 11.26538 N/A
10:55 pm 22:55 Clear 8 -13.5 5 -14.8 90 90 WSW 6 9 30.55 1035 7 11.26538 N/A
11:15 pm 23:15 Clear 10 -12.4 7 -13.9 89 89 WSW 6 9 30.53 1034 10 16.0934 N/A
11:35 pm 23:35 Clear 9 -12.7 6 -14.3 88 88 WSW 3 6 30.53 1034 10 16.0934 N/A
11:55 pm 23:55 Mostly Cloudy with Mist and Fog 3 -16.1 -1 -18.3 83 83 N N/A 30.56 1035 1.5 2.41401 N/A

Powered by AerisWeather